Regional Weather Roundup
Issued by NWS Cleveland, OH

Home | Current Version | Previous Version | Text Only | Print | Product List | Glossary Off
Versions: 1 2 3 4 5 6 7 8 9 10 11 12 13 14 15 16 17 18 19 20 21 22 23 24 25 26 27 28 29 30 31 32 33 34 35 36 37 38 39 40 41 42 43 44 45 46 47 48 49 50

000
ASUS41 KCLE 191910
RWRCLE
OHIO REGIONAL WEATHER ROUNDUP
NATIONAL WEATHER SERVICE WILMINGTON, OH
200 PM EST THU JAN 19 2017

NOTE: "FAIR" INDICATES FEW OR NO CLOUDS BELOW 12,000 FEET WITH NO
SIGNIFICANT WEATHER AND/OR OBSTRUCTIONS TO VISIBILITY.

OHZ001>008-015>018-024>027-034-035-043-044-192000-
   NORTHWEST OHIO

CITY           SKY/WX    TMP DP  RH WIND       PRES   REMARKS
DEFIANCE       CLOUDY    38  33  82 SE6       30.00F
FINDLAY        CLOUDY    39  33  79 SE6       30.01R
TOLEDO EXPRESS CLOUDY    38  34  85 S5        30.02R
TOLEDO EXEC    CLOUDY    39  35  86 S9        30.03R FOG
LIMA           CLOUDY    40  37  89 S7        30.00R
$$

OHZ009>014-019>023-028>033-038-089-192000-
   NORTHEAST OHIO

CITY           SKY/WX    TMP DP  RH WIND       PRES   REMARKS
CLE-HOPKINS    PTSUNNY   44  34  67 S7        30.02F
CLE-LAKEFRONT  PTSUNNY   38  35  89 N5        29.99F
CUY CO. ARPT   PTSUNNY   43  36  75 VRB6      29.99F
LORAIN-ELYRIA  PTSUNNY   40  34  79 S6        30.00F
ASHTABULA      CLOUDY    38  34  85 S6        30.01F
AKRON-CANTON   CLOUDY    40  34  79 S3        29.98F
WOOSTER        CLOUDY    40  35  83 SE8       30.01F
MANSFIELD      CLOUDY    41  35  79 S6        30.00R
YOUNGSTOWN     CLOUDY    40  34  79 VRB6      30.00F
$$

OHZ042-051>053-060>062-070>072-077>081-192000-
  SOUTHWEST OHIO

CITY           SKY/WX    TMP DP  RH WIND       PRES   REMARKS
CINC-COVINGTON CLOUDY    48  40  73 SE5       29.96F
CINC-LUNKEN    FAIR      49  41  74 SE6       29.98F
HAMILTON       FAIR      48  40  73 E6        29.98F
DAYTON         PTSUNNY   44  37  76 E8        29.98F
WRIGHT-PAT AFB CLOUDY    45  39  78 E8        29.98F
DAYTON GENERAL FAIR      45  38  76 E6        29.96F
WILMINGTON     FAIR      46  39  76 SE6       29.98F
$$

OHZ036-037-039>041-045>050-054>059-063>069-073>076-082>088-192000-
  CENTRAL AND SOUTHEAST OHIO

CITY           SKY/WX    TMP DP  RH WIND       PRES   REMARKS
COLUMBUS       CLOUDY    44  36  73 E9        30.02R
OSU AIRPORT    CLOUDY    42  37  82 CALM      30.02R
BOLTON FIELD   CLOUDY    41  37  87 E3        30.02R
RICKENBACK AFB   N/A     42  37  82 SE7       30.01S
NEWARK         CLOUDY    42  35  76 S5        30.03S
MARION         CLOUDY    41  35  79 SE9       30.02R
LANCASTER      FAIR      45  37  73 SE7       30.02F
ZANESVILLE     CLOUDY    41  36  82 SW7       30.04S
NEW PHILLY     CLOUDY    39  36  89 SE6       30.02F
$$



USA.gov is the U.S. government's official web portal to all federal, state and local government web resources and services.